Weather History for KMIV - June, 2014

Change the Weather History Date:

Tuesday, June 3, 2014

  Actual Average Record
Temperature  
Mean Temperature 70 °F -  
Max Temperature 86 °F 77 °F 89 °F (1980)
Min Temperature 55 °F 56 °F 44 °F (1949)
Cooling Degree Days 6    
Growing Degree Days 20 (Base 50)    
Moisture  
Dew Point 61 °F    
Average Humidity 68    
Maximum Humidity 93    
Minimum Humidity 49    
Precipitation  
Precipitation 0.00 in - - ()
Sea Level Pressure  
Sea Level Pressure 29.95 in    
Wind  
Wind Speed 4 mph (WSW)    
Max Wind Speed 13 mph    
Max Gust Speed 23 mph    
Visibility 10 miles    
Events      
Averages and records for this station are not official NWS values.
T = Trace of Precipitation, MM = Missing Value Source: NWS Daily Summary

Daily Weather History Graph

Daily Weather History Graph

Search for Another Location

Airport or City:

Trip Planner

Search our weather history database for the weather conditions in past years. The results will help you decide how hot, cold, wet, or windy it might be!

Date:

Astronomy

Jun. 03, 2014 Rise Set
Actual Time 5:34 AM EDT 8:22 PM EDT
Civil Twilight 5:02 AM EDT 8:54 PM EDT
Nautical Twilight 4:22 AM EDT 9:34 PM EDT
Astronomical Twilight 3:37 AM EDT 10:20 PM EDT
Moon 10:54 AM EDT (6/3) No Moon Set
Length of Visible Light 15h 51m
Length of Day
14h 47m
Waxing Crescent, 30% of the Moon is Illuminated
Jun 3
Waxing Crescent
Jun 5
First Quarter
Jun 13
Full
Jun 19
Last Quarter
Jun 27
New

Hourly Weather History & Observations

Time (EDT) Temp. Heat Index Dew Point Humidity Pressure Visibility Wind Dir Wind Speed Gust Speed Precip Events Conditions
12:54 AM 63.0 °F - 52.0 °F 67% 30.07 in 10.0 mi SSW 3.5 mph - N/A   Clear
1:54 AM 61.0 °F - 53.1 °F 75% 30.06 in 10.0 mi Calm Calm - N/A   Clear
2:54 AM 59.0 °F - 53.1 °F 81% 30.04 in 10.0 mi Calm Calm - N/A   Clear
3:54 AM 57.0 °F - 53.1 °F 87% 30.03 in 10.0 mi Calm Calm - N/A   Clear
4:54 AM 55.0 °F - 53.1 °F 93% 30.02 in 10.0 mi Calm Calm - N/A   Clear
5:54 AM 55.9 °F - 54.0 °F 93% 30.02 in 10.0 mi Calm Calm - N/A   Partly Cloudy
6:54 AM 63.0 °F - 59.0 °F 87% 30.01 in 10.0 mi Calm Calm - N/A   Clear
7:54 AM 69.1 °F - 60.1 °F 73% 30.00 in 10.0 mi WSW 5.8 mph - N/A   Scattered Clouds
8:54 AM 73.0 °F - 60.1 °F 64% 30.00 in 10.0 mi WSW 9.2 mph - N/A   Partly Cloudy
9:54 AM 77.0 °F - 61.0 °F 58% 29.98 in 10.0 mi West 5.8 mph - N/A   Partly Cloudy
10:54 AM 80.1 °F 81.5 °F 63.0 °F 56% 29.97 in 10.0 mi Calm Calm - N/A   Clear
11:54 AM 82.9 °F 84.4 °F 64.0 °F 53% 29.96 in 10.0 mi West 6.9 mph - N/A   Partly Cloudy
12:54 PM 84.9 °F 86.6 °F 64.9 °F 51% 29.95 in 10.0 mi West 9.2 mph - N/A   Partly Cloudy
1:54 PM 84.9 °F 86.6 °F 64.9 °F 51% 29.92 in 10.0 mi WSW 12.7 mph 23.0 mph N/A   Scattered Clouds
2:54 PM 86.0 °F 87.6 °F 64.9 °F 49% 29.90 in 10.0 mi SW 9.2 mph - N/A   Clear
3:54 PM 84.9 °F 86.1 °F 64.0 °F 49% 29.88 in 10.0 mi Variable 4.6 mph - N/A   Clear
4:54 PM 82.0 °F 83.8 °F 64.9 °F 56% 29.86 in 10.0 mi SW 4.6 mph - N/A   Clear
5:54 PM 82.0 °F 83.8 °F 64.9 °F 56% 29.86 in 10.0 mi West 6.9 mph - N/A   Clear
6:54 PM 80.1 °F 82.3 °F 66.9 °F 64% 29.85 in 10.0 mi WSW 9.2 mph - N/A   Scattered Clouds
7:54 PM 78.1 °F - 66.9 °F 68% 29.85 in 10.0 mi SW 4.6 mph - N/A   Partly Cloudy
8:54 PM 75.9 °F - 66.0 °F 71% 29.85 in 10.0 mi SW 3.5 mph - N/A   Clear
9:54 PM 73.0 °F - 66.0 °F 79% 29.86 in 10.0 mi SW 4.6 mph - N/A   Clear
11:54 PM 71.1 °F - 66.9 °F 87% 29.84 in 10.0 mi WSW 8.1 mph - N/A   Partly Cloudy